| time (UTC) | temp C | wind direction | speed KPH | gust KPH | rain 1hr cm | rain 24hr cm | rain mn cm | humidity % | barometer mb |
| 20260502163021 | 6 | 315 | 0.0 | 14.5 | 0.00 | 0.00 | 0.00 | 68 | 1020.4 |
| 20260502161520 | 6 | 192 | 1.6 | 9.7 | 0.00 | 0.00 | 0.00 | 68 | 1020.4 |
| 20260502151515 | 6 | 22 | 11.3 | 19.3 | 0.00 | 0.00 | 0.00 | 69 | 1020.2 |
| 20260502123051 | 3 | 333 | 4.8 | 12.9 | 0.00 | 0.00 | 0.00 | 82 | 1019.8 |
| 20260502121552 | 2 | 5 | 4.8 | 9.7 | 0.00 | 0.00 | 0.00 | 82 | 1019.5 |
| 20260502114547 | 2 | 327 | 1.6 | 6.4 | 0.00 | 0.00 | 0.00 | 86 | 1019.4 |
| 20260502113044 | 1 | 325 | 0.0 | 4.8 | 0.00 | 0.00 | 0.00 | 87 | 1019.5 |
| 20260502111558 | 1 | 340 | 0.0 | 4.8 | 0.00 | 0.00 | 0.00 | 87 | 1019.5 |
| 20260502110043 | 1 | 136 | 0.0 | 4.8 | 0.00 | 0.00 | 0.00 | 88 | 1019.5 |
| 20260502104542 | 1 | 320 | 1.6 | 8.0 | 0.00 | 0.00 | 0.00 | 88 | 1019.4 |
| 20260502103059 | 1 | 267 | 0.0 | 8.0 | 0.00 | 0.00 | 0.00 | 88 | 1019.4 |
| 20260502101541 | 1 | 214 | 0.0 | 4.8 | 0.00 | 0.00 | 0.00 | 89 | 1019.3 |
| 20260502071524 | 2 | 232 | 0.0 | 8.0 | 0.00 | 0.00 | 0.00 | 90 | 1019.1 |
| 20260502070023 | 2 | 246 | 0.0 | 8.0 | 0.00 | 0.00 | 0.00 | 90 | 1019.2 |
| 20260502064517 | 2 | 217 | 1.6 | 4.8 | 0.00 | 0.00 | 0.00 | 90 | 1019.4 |
| 20260502063025 | 2 | 264 | 0.0 | 3.2 | 0.00 | 0.00 | 0.00 | 91 | 1019.3 |
| 20260502061511 | 2 | 355 | 0.0 | 0.0 | 0.00 | 0.00 | 0.00 | 91 | 1019.4 |
| 20260502060017 | 3 | 355 | 0.0 | 0.0 | 0.00 | 0.00 | 0.00 | 91 | 1019.5 |
| 20260502054520 | 3 | 355 | 0.0 | 0.0 | 0.00 | 0.00 | 0.00 | 90 | 1019.6 |
| 20260502053008 | 3 | 355 | 0.0 | 3.2 | 0.00 | 0.00 | 0.00 | 90 | 1019.7 |
| 20260502051506 | 3 | 355 | 0.0 | 0.0 | 0.00 | 0.00 | 0.00 | 90 | 1019.6 |
| 20260502050010 | 3 | 355 | 0.0 | 3.2 | 0.00 | 0.00 | 0.00 | 91 | 1019.7 |
| 20260502044505 | 2 | 355 | 0.0 | 0.0 | 0.00 | 0.00 | 0.00 | 91 | 1019.5 |
| 20260502043004 | 2 | 355 | 0.0 | 0.0 | 0.00 | 0.00 | 0.00 | 91 | 1019.6 |
| 20260502041501 | 3 | 355 | 0.0 | 0.0 | 0.00 | 0.00 | 0.00 | 91 | 1019.6 |
| 20260502040059 | 3 | 355 | 0.0 | 0.0 | 0.00 | 0.00 | 0.00 | 91 | 1019.6 |
| 20260502034558 | 3 | 355 | 0.0 | 0.0 | 0.00 | 0.00 | 0.00 | 90 | 1019.6 |
| 20260502033058 | 4 | 355 | 0.0 | 0.0 | 0.00 | 0.00 | 0.00 | 90 | 1019.7 |
| 20260502031558 | 5 | 355 | 0.0 | 0.0 | 0.00 | 0.00 | 0.00 | 90 | 1019.9 |
| 20260502030059 | 5 | 355 | 0.0 | 0.0 | 0.00 | 0.00 | 0.00 | 90 | 1019.8 |
| 20260502024555 | 5 | 355 | 0.0 | 0.0 | 0.00 | 0.00 | 0.00 | 90 | 1019.7 |
| 20260502023056 | 5 | 355 | 0.0 | 0.0 | 0.00 | 0.00 | 0.00 | 89 | 1019.6 |
| 20260502021551 | 5 | 355 | 0.0 | 0.0 | 0.00 | 0.00 | 0.00 | 89 | 1019.5 |
| 20260502020050 | 6 | 355 | 0.0 | 0.0 | 0.00 | 0.00 | 0.00 | 87 | 1019.4 |
| 20260502014550 | 6 | 355 | 0.0 | 0.0 | 0.00 | 0.00 | 0.00 | 85 | 1019.1 |
| 20260502013050 | 6 | 360 | 0.0 | 4.8 | 0.00 | 0.00 | 0.00 | 84 | 1018.9 |
| 20260502011545 | 6 | 294 | 0.0 | 3.2 | 0.00 | 0.00 | 0.00 | 84 | 1018.6 |
| 20260502010051 | 6 | 11 | 0.0 | 8.0 | 0.00 | 0.00 | 0.00 | 83 | 1018.4 |
| 20260502004602 | 6 | 5 | 3.2 | 8.0 | 0.00 | 0.00 | 0.00 | 83 | 1018.5 |
| 20260502003041 | 7 | 11 | 0.0 | 3.2 | 0.00 | 0.00 | 0.00 | 83 | 1018.4 |
| 20260502001540 | 7 | 12 | 0.0 | 8.0 | 0.00 | 0.00 | 0.00 | 81 | 1018.4 |
| 20260502000050 | 7 | 344 | 1.6 | 8.0 | 0.00 | 0.00 | 0.00 | 80 | 1018.0 |
| 20260501234536 | 7 | 360 | 1.6 | 11.3 | 0.00 | 0.00 | 0.00 | 78 | 1017.7 |
| 20260501233040 | 8 | 261 | 4.8 | 11.3 | 0.00 | 0.00 | 0.00 | 77 | 1017.4 |
| 20260501231539 | 8 | 5 | 3.2 | 9.7 | 0.00 | 0.00 | 0.00 | 75 | 1017.2 |
| 20260501230034 | 8 | 304 | 1.6 | 8.0 | 0.00 | 0.00 | 0.00 | 78 | 1017.2 |
| 20260501224538 | 8 | 360 | 1.6 | 11.3 | 0.00 | 0.00 | 0.00 | 77 | 1017.3 |
| 20260501223033 | 8 | 31 | 4.8 | 14.5 | 0.00 | 0.00 | 0.00 | 78 | 1017.2 |
| 20260501221533 | 8 | 243 | 4.8 | 17.7 | 0.00 | 0.00 | 0.00 | 82 | 1017.3 |
| 20260501220031 | 7 | 345 | 4.8 | 14.5 | 0.00 | 0.00 | 0.00 | 84 | 1017.6 |
| 20260501214531 | 7 | 351 | 1.6 | 11.3 | 0.00 | 0.00 | 0.00 | 86 | 1017.4 |
| 20260501213030 | 7 | 19 | 1.6 | 12.9 | 0.00 | 0.00 | 0.00 | 86 | 1017.0 |
| 20260501211530 | 7 | 286 | 4.8 | 16.1 | 0.00 | 0.00 | 0.00 | 85 | 1016.7 |
| 20260501210029 | 7 | 326 | 3.2 | 16.1 | 0.00 | 0.00 | 0.00 | 86 | 1016.4 |
| 20260501204528 | 7 | 350 | 3.2 | 12.9 | 0.00 | 0.00 | 0.00 | 85 | 1016.2 |
| 20260501203028 | 7 | 319 | 1.6 | 14.5 | 0.00 | 0.00 | 0.00 | 85 | 1016.2 |
| 20260501201530 | 7 | 5 | 8.0 | 17.7 | 0.00 | 0.00 | 0.00 | 85 | 1016.1 |
| 20260501200027 | 8 | 314 | 6.4 | 17.7 | 0.00 | 0.00 | 0.00 | 83 | 1015.9 |
| 20260501194527 | 8 | 238 | 6.4 | 22.5 | 0.00 | 0.00 | 0.00 | 82 | 1015.6 |
| 20260501193028 | 10 | 158 | 6.4 | 24.1 | 0.00 | 0.00 | 0.00 | 85 | 1015.4 |
| 20260501191527 | 10 | 5 | 8.0 | 22.5 | 0.00 | 0.00 | 0.00 | 83 | 1015.0 |
| 20260501190024 | 10 | 198 | 9.7 | 24.1 | 0.00 | 0.00 | 0.00 | 84 | 1014.7 |
| 20260501184522 | 10 | 216 | 4.8 | 14.5 | 0.00 | 0.00 | 0.00 | 89 | 1014.3 |
| 20260501183020 | 8 | 192 | 3.2 | 11.3 | 0.00 | 0.00 | 0.00 | 90 | 1014.3 |
| 20260501181516 | 7 | 192 | 6.4 | 11.3 | 0.00 | 0.00 | 0.00 | 90 | 1014.4 |
| 20260501180024 | 7 | 189 | 4.8 | 14.5 | 0.00 | 0.00 | 0.00 | 90 | 1014.3 |
| 20260501174521 | 7 | 197 | 8.0 | 16.1 | 0.00 | 0.00 | 0.00 | 90 | 1014.3 |
| 20260501173015 | 8 | 217 | 9.7 | 20.9 | 0.00 | 0.00 | 0.00 | 90 | 1014.3 |
| 20260501171512 | 7 | 207 | 3.2 | 11.3 | 0.00 | 0.00 | 0.00 | 90 | 1014.3 |